Tracking 17842 objects as of 30-August-2016
HD Live streaming from Space Station
objects crossing your sky now

CZ-4 DEB

Track CZ-4 DEB now!
10-day predictions


NORAD ID: 26259
Int'l Code: 1999-057EV
Perigee: 670.3 km
Apogee: 799.0 km
Inclination: 98.5 °
Period: 99.3 minutes
Semi major axis: 7105 km
RCS: 0.031 m2 (small)
Launch date: October 14, 1999
Source: People's Republic of China (PRC)
Launch site: Taiyaun Space Center, China (TSC)

Note: This is SATELLITE DEBRIS
Your satellite tracking list
Your tracking list is empty





NASA's NSSDC Master Catalog

Two Line Element Set (TLE):
1 26259U 99057EV  16243.18349601  .00000723  00000-0  19188-3 0  9994
2 26259  98.5303 215.8920 0090547 196.2523 287.3709 14.49434788863706
Source of the keplerian elements: AFSPC

N2YO: 446